LOT024W EPWA-EPPO

Flight info

Callsign LOT024W
Flight time 0h 31m
Altitude 26000
Route LOLSI DCT DIBLO DCT INDIG L980 MASIV
Aircraft B736/M-SDE2E3FGHIRWXY/LB1

Departure

Time 2026-05-07 19:22
Airport Warsaw Chopin Airport (EPWA)

Arrival

Time 2026-05-07 19:53
Airport Poznań-Ławica Airport (EPPO)
Time Latitude Longitude Altitude Speed Heading
2026-05-07 18:49 52.17479 20.96955 353 ft 0 kts 242°
2026-05-07 18:50 52.17476 20.96945 334 ft 0 kts 242°
2026-05-07 19:09 52.17486 20.96976 332 ft 4 kts 242°
2026-05-07 19:10 52.17498 20.97015 333 ft 4 kts 258°
2026-05-07 19:10 52.17495 20.97054 334 ft 4 kts 314°
2026-05-07 19:10 52.17485 20.97067 336 ft 1 kts 332°
2026-05-07 19:10 52.17484 20.97068 336 ft 0 kts 332°
2026-05-07 19:15 52.17566 20.96996 338 ft 6 kts 332°
2026-05-07 19:15 52.17579 20.96985 338 ft 7 kts 332°
2026-05-07 19:16 52.17617 20.96871 338 ft 9 kts 250°
2026-05-07 19:16 52.17581 20.96772 336 ft 12 kts 239°
2026-05-07 19:16 52.17551 20.96690 338 ft 13 kts 239°
2026-05-07 19:17 52.17472 20.96517 336 ft 13 kts 234°
2026-05-07 19:17 52.17442 20.96437 334 ft 11 kts 240°
2026-05-07 19:17 52.17353 20.96431 335 ft 11 kts 152°
2026-05-07 19:18 52.17287 20.96490 338 ft 11 kts 152°
2026-05-07 19:18 52.17239 20.96532 335 ft 14 kts 152°
2026-05-07 19:18 52.16998 20.96742 336 ft 18 kts 151°
2026-05-07 19:19 52.16881 20.96842 336 ft 20 kts 151°
2026-05-07 19:19 52.16754 20.96952 338 ft 22 kts 152°
2026-05-07 19:19 52.16645 20.97120 335 ft 22 kts 115°
2026-05-07 19:19 52.16582 20.97343 336 ft 21 kts 114°
2026-05-07 19:20 52.16520 20.97562 335 ft 21 kts 114°
2026-05-07 19:20 52.16458 20.97768 336 ft 20 kts 128°
2026-05-07 19:20 52.16362 20.97766 338 ft 14 kts 205°
2026-05-07 19:20 52.16304 20.97673 336 ft 6 kts 269°
2026-05-07 19:21 52.16322 20.97607 335 ft 6 kts 296°
2026-05-07 19:21 52.16357 20.97487 336 ft 38 kts 295°
2026-05-07 19:21 52.16560 20.96770 337 ft 98 kts 292°
2026-05-07 19:21 52.16920 20.95540 364 ft 139 kts 298°
2026-05-07 19:22 52.17347 20.94072 675 ft 145 kts 296°
2026-05-07 19:22 52.17756 20.92515 1125 ft 148 kts 296°
2026-05-07 19:22 52.18157 20.90901 1547 ft 159 kts 279°
2026-05-07 19:22 52.18071 20.89095 2046 ft 163 kts 267°
2026-05-07 19:23 52.18001 20.87027 2435 ft 197 kts 269°
2026-05-07 19:23 52.17939 20.84621 2741 ft 227 kts 269°
2026-05-07 19:23 52.18051 20.81985 3248 ft 247 kts 278°
2026-05-07 19:23 52.18157 20.79124 4116 ft 255 kts 270°
2026-05-07 19:24 52.18136 20.76190 5138 ft 258 kts 269°
2026-05-07 19:24 52.18099 20.73269 6185 ft 259 kts 268°
2026-05-07 19:24 52.18066 20.70341 7145 ft 262 kts 268°
2026-05-07 19:24 52.18040 20.67309 8087 ft 267 kts 268°
2026-05-07 19:25 52.18020 20.64280 9047 ft 271 kts 269°
2026-05-07 19:25 52.18006 20.61155 10004 ft 275 kts 268°
2026-05-07 19:25 52.17993 20.57968 10589 ft 291 kts 268°
2026-05-07 19:25 52.17981 20.54484 10832 ft 317 kts 268°
2026-05-07 19:26 52.17971 20.50827 11508 ft 327 kts 268°
2026-05-07 19:26 52.17962 20.47118 12380 ft 330 kts 268°
2026-05-07 19:26 52.17954 20.43368 13303 ft 333 kts 268°
2026-05-07 19:26 52.17944 20.39574 14154 ft 337 kts 267°
2026-05-07 19:27 52.17934 20.35689 14977 ft 341 kts 267°
2026-05-07 19:27 52.17922 20.31732 15815 ft 345 kts 267°
2026-05-07 19:27 52.17909 20.27850 16634 ft 349 kts 267°
2026-05-07 19:27 52.17894 20.23847 17478 ft 353 kts 266°
2026-05-07 19:28 52.17878 20.19826 18304 ft 357 kts 266°
2026-05-07 19:28 52.17861 20.15782 19017 ft 361 kts 266°
2026-05-07 19:28 52.17841 20.11648 19753 ft 365 kts 265°
2026-05-07 19:28 52.17820 20.07514 20441 ft 369 kts 265°
2026-05-07 19:29 52.17806 20.04708 20909 ft 372 kts 265°
2026-05-07 19:29 52.17790 20.01836 21438 ft 373 kts 264°
2026-05-07 19:29 52.17775 19.99013 22040 ft 372 kts 264°
2026-05-07 19:29 52.17744 19.93413 23353 ft 368 kts 263°
2026-05-07 19:30 52.17725 19.90614 23714 ft 371 kts 263°
2026-05-07 19:30 52.17660 19.86431 23989 ft 365 kts 258°
2026-05-07 19:30 52.17355 19.82316 24010 ft 363 kts 256°
2026-05-07 19:30 52.17180 19.78192 24022 ft 373 kts 265°
2026-05-07 19:31 52.17456 19.73957 24540 ft 377 kts 270°
2026-05-07 19:31 52.17797 19.69780 25597 ft 367 kts 270°
2026-05-07 19:31 52.18133 19.65656 25921 ft 364 kts 270°
2026-05-07 19:31 52.18457 19.61549 26019 ft 371 kts 269°
2026-05-07 19:32 52.18776 19.57395 26024 ft 370 kts 269°
2026-05-07 19:32 52.19093 19.53235 26020 ft 366 kts 269°
2026-05-07 19:32 52.19405 19.49102 26030 ft 364 kts 269°
2026-05-07 19:32 52.19710 19.45005 26031 ft 362 kts 269°
2026-05-07 19:33 52.20010 19.40928 26030 ft 362 kts 269°
2026-05-07 19:33 52.20308 19.36837 26037 ft 362 kts 269°
2026-05-07 19:33 52.20604 19.32727 26050 ft 369 kts 269°
2026-05-07 19:33 52.20900 19.28580 26040 ft 371 kts 269°
2026-05-07 19:34 52.21201 19.24399 26036 ft 369 kts 269°
2026-05-07 19:34 52.21501 19.20239 26035 ft 369 kts 269°
2026-05-07 19:34 52.21798 19.16085 26035 ft 369 kts 269°
2026-05-07 19:34 52.22091 19.11948 26037 ft 368 kts 269°
2026-05-07 19:35 52.22387 19.07767 26033 ft 367 kts 269°
2026-05-07 19:35 52.22677 19.03675 25851 ft 360 kts 269°
2026-05-07 19:35 52.22959 18.99663 25477 ft 357 kts 269°
2026-05-07 19:35 52.23244 18.95562 24988 ft 356 kts 269°
2026-05-07 19:36 52.23519 18.91568 24543 ft 355 kts 269°
2026-05-07 19:36 52.23793 18.87564 23989 ft 356 kts 270°
2026-05-07 19:36 52.24068 18.83506 23394 ft 358 kts 270°
2026-05-07 19:36 52.24343 18.79441 22867 ft 356 kts 270°
2026-05-07 19:37 52.24612 18.75477 22403 ft 353 kts 271°
2026-05-07 19:37 52.24881 18.71504 21755 ft 354 kts 271°
2026-05-07 19:37 52.25151 18.67425 20857 ft 363 kts 271°
2026-05-07 19:37 52.25420 18.63362 20359 ft 361 kts 272°
2026-05-07 19:38 52.25693 18.59282 19974 ft 355 kts 272°
2026-05-07 19:38 52.25957 18.55303 19528 ft 352 kts 272°
2026-05-07 19:38 52.26220 18.51307 19031 ft 350 kts 273°
2026-05-07 19:38 52.26476 18.47379 18553 ft 348 kts 273°
2026-05-07 19:39 52.26734 18.43410 18061 ft 346 kts 273°
2026-05-07 19:39 52.26986 18.39502 17565 ft 343 kts 273°
2026-05-07 19:39 52.27236 18.35630 17041 ft 336 kts 273°
2026-05-07 19:39 52.27478 18.31844 16272 ft 333 kts 273°
2026-05-07 19:40 52.27718 18.28066 15498 ft 332 kts 273°
2026-05-07 19:40 52.27954 18.24344 14818 ft 328 kts 274°
2026-05-07 19:40 52.28185 18.20664 14179 ft 324 kts 274°
2026-05-07 19:40 52.28413 18.17023 13482 ft 321 kts 274°
2026-05-07 19:41 52.28637 18.13435 12774 ft 318 kts 274°
2026-05-07 19:41 52.28860 18.09840 12071 ft 314 kts 274°
2026-05-07 19:41 52.29081 18.06244 11505 ft 316 kts 274°
2026-05-07 19:41 52.29299 18.02686 11135 ft 311 kts 274°
2026-05-07 19:42 52.29510 17.99236 10734 ft 308 kts 274°
2026-05-07 19:42 52.29722 17.95743 10297 ft 307 kts 274°
2026-05-07 19:42 52.29931 17.92295 10124 ft 307 kts 274°
2026-05-07 19:42 52.30142 17.88771 10085 ft 308 kts 274°
2026-05-07 19:43 52.30350 17.85300 10072 ft 305 kts 274°
2026-05-07 19:43 52.30557 17.81827 10069 ft 306 kts 274°
2026-05-07 19:43 52.30764 17.78341 10065 ft 307 kts 274°
2026-05-07 19:43 52.30965 17.74934 10051 ft 300 kts 274°
2026-05-07 19:44 52.31164 17.71552 10055 ft 292 kts 274°
2026-05-07 19:44 52.31355 17.68295 10058 ft 288 kts 274°
2026-05-07 19:44 52.31545 17.65009 10072 ft 289 kts 274°
2026-05-07 19:44 52.31734 17.61746 10081 ft 290 kts 274°
2026-05-07 19:45 52.31922 17.58483 10018 ft 285 kts 274°
2026-05-07 19:45 52.32108 17.55241 9585 ft 281 kts 274°
2026-05-07 19:45 52.32290 17.52035 8817 ft 285 kts 274°
2026-05-07 19:45 52.32475 17.48765 7996 ft 290 kts 275°
2026-05-07 19:46 52.32659 17.45509 7359 ft 290 kts 275°
2026-05-07 19:46 52.32843 17.42246 6775 ft 287 kts 275°
2026-05-07 19:46 52.33023 17.39018 6162 ft 285 kts 275°
2026-05-07 19:46 52.33206 17.35754 5514 ft 285 kts 276°
2026-05-07 19:47 52.33384 17.32539 5177 ft 286 kts 276°
2026-05-07 19:47 52.33562 17.29312 5080 ft 282 kts 276°
2026-05-07 19:47 52.33734 17.26176 4946 ft 269 kts 276°
2026-05-07 19:47 52.34077 17.23161 4139 ft 275 kts 288°
2026-05-07 19:48 52.34692 17.20152 3472 ft 281 kts 291°
2026-05-07 19:48 52.35375 17.17246 3261 ft 266 kts 294°
2026-05-07 19:48 52.36002 17.14483 3102 ft 251 kts 290°
2026-05-07 19:48 52.36525 17.11818 3007 ft 236 kts 289°
2026-05-07 19:49 52.36993 17.09323 3009 ft 225 kts 290°
2026-05-07 19:49 52.37435 17.06991 2996 ft 205 kts 290°
2026-05-07 19:49 52.37846 17.04831 2947 ft 197 kts 290°
2026-05-07 19:49 52.38256 17.02688 2733 ft 196 kts 290°
2026-05-07 19:50 52.38662 17.00566 2455 ft 196 kts 290°
2026-05-07 19:50 52.38932 16.99153 2279 ft 193 kts 290°
2026-05-07 19:50 52.39322 16.97101 1988 ft 183 kts 290°
2026-05-07 19:50 52.39687 16.95192 1780 ft 165 kts 291°
2026-05-07 19:51 52.40015 16.93485 1529 ft 151 kts 290°
2026-05-07 19:51 52.40322 16.91890 1339 ft 143 kts 290°
2026-05-07 19:51 52.40625 16.90316 1167 ft 144 kts 290°
2026-05-07 19:51 52.40920 16.88773 937 ft 139 kts 290°
2026-05-07 19:52 52.41219 16.87275 722 ft 140 kts 290°
2026-05-07 19:52 52.41485 16.85753 531 ft 137 kts 289°
2026-05-07 19:52 52.41771 16.84263 352 ft 137 kts 291°
2026-05-07 19:52 52.42065 16.82812 288 ft 124 kts 292°
2026-05-07 19:53 52.42275 16.81762 291 ft 58 kts 287°
2026-05-07 19:53 52.42282 16.81284 289 ft 22 kts 256°
2026-05-07 19:53 52.42273 16.81219 291 ft 0 kts 256°
2026-05-07 19:54 52.42272 16.81213 290 ft 2 kts 256°
2026-05-07 19:54 52.42260 16.81165 287 ft 7 kts 225°
2026-05-07 19:55 52.42219 16.81186 287 ft 7 kts 124°
2026-05-07 19:55 52.42198 16.81257 291 ft 7 kts 106°
2026-05-07 19:55 52.42183 16.81333 289 ft 7 kts 108°
2026-05-07 19:55 52.42164 16.81429 287 ft 11 kts 108°
2026-05-07 19:56 52.42135 16.81580 287 ft 16 kts 107°
2026-05-07 19:56 52.42097 16.81778 292 ft 20 kts 107°
2026-05-07 19:56 52.42050 16.82022 287 ft 24 kts 108°
2026-05-07 19:56 52.41996 16.82301 289 ft 27 kts 107°
2026-05-07 19:57 52.41936 16.82613 287 ft 29 kts 108°
2026-05-07 19:57 52.41890 16.82848 287 ft 12 kts 108°
2026-05-07 19:57 52.41837 16.82911 287 ft 9 kts 194°
2026-05-07 19:57 52.41779 16.82881 287 ft 9 kts 198°
2026-05-07 19:58 52.41721 16.82851 287 ft 8 kts 197°
2026-05-07 19:58 52.41670 16.82879 287 ft 8 kts 129°
2026-05-07 19:58 52.41635 16.82933 287 ft 6 kts 179°
2026-05-07 19:58 52.41597 16.82916 287 ft 6 kts 192°
2026-05-07 19:59 52.41579 16.82909 287 ft 0 kts 193°